Location: Hertford
(51.8000°N, 0.0667°W)
Time: 11:53:47
(UTC+00:00)

NOSS 3-2 (C) - Pass Details

Date: 18 September 2020
Orbit: 795 x 1418 km, 63.4° (Epoch: 02 October)

Event Time Altitude Azimuth Distance (km) Brightness Sun altitude
Rises 18:41:31 0° 309° (NW) 3,790 7.8 -6.1°
Reaches altitude 10° 18:44:06 10° 315° (NW) 2,923 7.0 -6.5°
Maximum altitude 18:50:56 51° 30° (NNE) 1,489 4.4 -7.6°
Enters shadow 18:58:45 10° 105° (ESE) 3,331 5.6 -8.7°
